Simultaneous Nadir Overpasses (SNOs) Predictions

Prediction of SNOs between METOP-B and TERRA Satellite Orbit:

Table of predicted SNOs for the next 14.0 days since TLE Epoch: 8/5/2023
Index Date (METOP-B) Time (METOP-B) Lat,Lon (METOP-B) SZA (METOP-B ) Date (TERRA) Time (TERRA) Lat,Lon (TERRA) SZA (TERRA ) Distance(km) Time Diff (sec)
1 08/07/2023 14:12:31 -80.77, 178.21 114.37 08/07/2023 14:12:48 -80.76, 178.08 114.38 2.38 17
2 08/07/2023 15:03:09 80.82, -13.56 65.77 08/07/2023 15:02:08 80.82, -13.62 65.74 1.22 61
3 08/10/2023 05:33:30 80.73, 127.33 66.31 08/10/2023 05:34:15 80.74, 127.43 66.34 2.00 45
4 08/10/2023 06:24:07 -80.82, -63.94 113.49 08/10/2023 06:23:35 -80.81, -64.10 113.52 3.02 32
5 08/12/2023 20:54:27 -80.72, 76.92 112.93 08/12/2023 20:55:41 -80.72, 76.76 112.92 2.87 74
6 08/12/2023 21:45:05 80.77,-114.90 67.20 08/12/2023 21:45:01 80.77,-114.94 67.20 0.73 4
7 08/15/2023 13:06:03 -80.76,-165.37 112.01 08/15/2023 13:06:27 -80.76,-165.48 112.02 2.00 24
8 08/15/2023 13:56:42 80.79, 2.45 68.07 08/15/2023 13:55:48 80.79, 2.49 68.05 0.78 54
9 08/18/2023 04:27:02 80.71, 143.51 68.72 08/18/2023 04:27:53 80.72, 143.66 68.75 2.85 51



Historial Predications of SNOs between METOP-B and TERRA
